Regional Weather Roundup
Issued by NWS Little Rock, AR

Home | Current Version | Previous Version | Text Only | Print | Product List | Glossary Off
Versions: 1 2 3 4 5 6 7 8 9 10 11 12 13 14 15 16 17 18 19 20 21 22 23 24 25 26 27 28 29 30 31 32 33 34 35 36 37 38 39 40 41 42 43 44 45 46 47 48 49 50

000
ASUS44 KLZK 291805
RWRLZK

WEATHER ROUNDUP FOR ARKANSAS
NATIONAL WEATHER SERVICE LITTLE ROCK AR
100 PM CDT FRI APR 29 2016

NOTE: "FAIR" INDICATES FEW OR NO CLOUDS BELOW 12,000 FEET WITH NO
SIGNIFICANT WEATHER AND/OR OBSTRUCTIONS TO VISIBILITY.

ARZ001-003-010-029-291900-
NORTHWEST ARKANSAS

CITY           SKY/WX    TMP DP  RH WIND       PRES   REMARKS
FAYETTEVILLE   PTSUNNY   65  59  81 E14       29.83F
6HR MIN TEMP:  53; 6HR MAX TEMP:  65; 6HR PCP:  0.80;

FORT SMITH     CLOUDY    64  56  75 E15       29.82S
6HR MIN TEMP:  59; 6HR MAX TEMP:  65; 6HR PCP:  0.48;

HARRISON       CLOUDY    54  53  97 SE12      29.90F
6HR MIN TEMP:  52; 6HR MAX TEMP:  55; 6HR PCP:  0.93;

BENTONVILLE    CLOUDY    64  55  72 SE17G23   29.85F
6HR MIN TEMP:  54; 6HR MAX TEMP:  64; 6HR PCP:  0.47;

ROGERS         CLOUDY    62  56  80 E20G28    29.84F
6HR MIN TEMP:  53; 6HR MAX TEMP:  62; 6HR PCP:  0.57;

SILOAM SPGS    CLOUDY    66  54  63 SE15G23   29.82F
6HR MIN TEMP:  54; 6HR MAX TEMP:  66; 6HR PCP:  0.65;

HIGHFILL       CLOUDY    66  59  78 E18G26    29.83F
6HR MIN TEMP:  54; 6HR MAX TEMP:  67; 6HR PCP:  0.55;

SPRINGDALE     CLOUDY    63  57  82 E20G25    29.86F
$$

ARZ004-005-016-291900-
NORTH CENTRAL ARKANSAS

CITY           SKY/WX    TMP DP  RH WIND       PRES   REMARKS
BATESVILLE     CLOUDY    57  54  88 E25G33    29.86F
6HR MIN TEMP:  55; 6HR MAX TEMP:  59; 6HR PCP:  1.40;

FLIPPIN        CLOUDY   N/A N/A N/A E8        29.87F
                                      6HR PCP:  0.92;

MTN HOME       LGT RAIN  55  53  93 E13       29.89F
6HR MIN TEMP:  52; 6HR MAX TEMP:  55; 6HR PCP:  0.73;

$$

ARZ040-041-291900-
WEST CENTRAL ARKANSAS

CITY           SKY/WX    TMP DP  RH WIND       PRES   REMARKS
MENA           CLOUDY    63  61  94 E7        29.84F
MOUNT IDA      LGT RAIN  60  58  92 VRB5      29.83F
6HR MIN TEMP:  59; 6HR MAX TEMP:  65; 6HR PCP:  2.06;

$$

ARZ009-017-025-026-028-291900-
NORTHEAST ARKANSAS

CITY           SKY/WX    TMP DP  RH WIND       PRES   REMARKS
CORNING        TSTM      57  57 100 NE7       30.05F
JONESBORO      RAIN      58  58 100 NE18      29.98F
6HR MIN TEMP:  58; 6HR MAX TEMP:  61; 6HR PCP:  0.73;

NEWPORT        CLOUDY    58  58 100 NW10      30.04R FOG
6HR MIN TEMP:  57; 6HR MAX TEMP:  62; 6HR PCP:  1.25;

WALNUT RIDGE   CLOUDY    55  52  88 NE16      30.00F
6HR MIN TEMP:  55; 6HR MAX TEMP:  59; 6HR PCP:  1.42;

BLYTHEVILLE    TSTM      60  58  92 N9        30.05R FOG
6HR MIN TEMP:  60; 6HR MAX TEMP:  64; 6HR PCP:  0.23;

$$

ARZ022-023-033-042-044-291900-
CENTRAL ARKANSAS

CITY           SKY/WX    TMP DP  RH WIND       PRES   REMARKS
LITTLE ROCK    LGT RAIN  64  62  93 SE12      29.85F
6HR MIN TEMP:  62; 6HR MAX TEMP:  69; 6HR PCP:  2.76;

N LITTLE ROCK    N/A     62  61  97 E9G20     29.86F
6HR MIN TEMP:  60; 6HR MAX TEMP:  67;

JACKSONVILLE   LGT RAIN  59  59 100 VRB6      29.87F
6HR MIN TEMP:  60; 6HR MAX TEMP:  66; 6HR PCP:  2.55;

SEARCY         RAIN      58  57  97 E17       29.90F
6HR MIN TEMP:  58; 6HR MAX TEMP:  64; 6HR PCP:  1.47;

HOT SPRINGS    LGT RAIN  67  64  90 CALM      29.86S
6HR MIN TEMP:  62; 6HR MAX TEMP:  68; 6HR PCP:  1.94;

RUSSELLVILLE   CLOUDY    62  58  86 VRB5      29.86F
6HR MIN TEMP:  57; 6HR MAX TEMP:  65; 6HR PCP:  1.77;

$$

ARZ036-291900-
EAST ARKANSAS

CITY           SKY/WX    TMP DP  RH WIND       PRES   REMARKS
WEST MEMPHIS   LGT RAIN  61  61 100 NE15G22   29.95F
6HR MIN TEMP:  59; 6HR MAX TEMP:  70; 6HR PCP:  2.16;

$$

ARZ050-053-066-070-073-291900-
SOUTHWEST ARKANSAS

CITY           SKY/WX    TMP DP  RH WIND       PRES   REMARKS
ARKADELPHIA    FAIR      71  71 100 CALM      29.85F
6HR MIN TEMP:  65; 6HR MAX TEMP:  71; 6HR PCP:  0.77;

CAMDEN         CLOUDY    77  68  73 E7        29.85F
TEXARKANA      CLOUDY    80  70  71 E7        29.79F
6HR MIN TEMP:  71; 6HR MAX TEMP:  80;

EL DORADO      CLOUDY    79  70  74 VRB5      29.83F
6HR MIN TEMP:  72; 6HR MAX TEMP:  79;

DE QUEEN       TSTM      68  66  93 VRB6      29.77F
6HR MIN TEMP:  64; 6HR MAX TEMP:  69;

$$

ARZ056-057-069-291900-
SOUTHEAST ARKANSAS

CITY           SKY/WX    TMP DP  RH WIND       PRES   REMARKS
PINE BLUFF     LGT RAIN  65  64  97 N12       29.94R FOG
6HR MIN TEMP:  64; 6HR MAX TEMP:  69; 6HR PCP:  0.51;

STUTTGART      CLOUDY    61  55  82 N16G29    29.95R THUNDER
6HR MIN TEMP:  61; 6HR MAX TEMP:  68; 6HR PCP:  1.34;

MONTICELLO     CLOUDY    74  71  91 E5        29.91R
6HR MIN TEMP:  69; 6HR MAX TEMP:  75; 6HR PCP:  0.10;


$$





USA.gov is the U.S. government's official web portal to all federal, state and local government web resources and services.